Powrót do katalogu

CZ-6A DEB

AktywnyPO
NORAD 61112·DEBRIS·🇨🇳 China

Wystrzelony Aug 6, 2024 z Taiyuan Satellite Launch Center

Loading…

Następne Przeloty (najbliższe 24 godziny)

TLE

ŚwieżeSource: Space-Track

Epoka: Sep 14, 2026, 06:51 UTC

1 61112U 24140PE  26257.28550954  .00002916  00000-0  63081-3 0  9991
2 61112  89.0285 262.9756 0060951 292.7384  66.7392 14.56888485109334

Śledź CZ-6A DEB w czasie rzeczywistym z AllMySat

Download on the App Store